Change the Weather History Date:

Saturday, February 9, 2013

  Actual Average Record
Temperature  
Mean Temperature 27 °F 31 °F  
Max Temperature 38 °F 44 °F 70 °F (1954)
Min Temperature 16 °F 18 °F -23 °F (1982)
Degree Days  
Heating Degree Days 38 34  
Month to date heating degree days 263 314  
Since 1 July heating degree days 3966 3971  
Cooling Degree Days 0 0  
Month to date cooling degree days 0 0  
Year to date cooling degree days 0 0  
Moisture  
Dew Point 22 °F    
Average Humidity 75    
Maximum Humidity 91    
Minimum Humidity 59    
Precipitation  
Precipitation T in 0.01 in 0.31 in (1953)
Month to date precipitation 0.01 0.08  
Year to date precipitation 0.18 0.28  
Sea Level Pressure  
Sea Level Pressure 29.63 in    
Wind  
Wind Speed 16 mph (NNW)    
Max Wind Speed 26 mph    
Max Gust Speed 36 mph    
Visibility 10 miles    
Events      
T = Trace of Precipitation, MM = Missing Value Source: NWS Daily Summary

Daily Weather History Graph

Daily Weather History Graph

Search for Another Location

Airport or City:

Trip Planner

Search our weather history database for the weather conditions in past years. The results will help you decide how hot, cold, wet, or windy it might be!

Date:

Astronomy

Feb. 09, 2013 Rise Set
Actual Time 6:53 AM MST 5:19 PM MST
Civil Twilight 6:25 AM MST 5:47 PM MST
Nautical Twilight 5:52 AM MST 6:20 PM MST
Astronomical Twilight 5:20 AM MST 6:52 PM MST
Moon 6:06 AM MST (2/9) 5:04 PM MST (2/9)
Length of Visible Light 11h 22m
Length of Day
10h 25m
Waning Crescent, 0% of the Moon is Illuminated
Feb 9
Waning Crescent
Feb 10
New
Feb 17
First Quarter
Feb 25
Full
Mar 4
Last Quarter

Hourly Weather History & Observations

Time (MST) Temp. Windchill Dew Point Humidity Pressure Visibility Wind Dir Wind Speed Gust Speed Precip Events Conditions
12:53 AM 33.1 °F 24.4 °F 21.9 °F 64% 29.70 in 10.0 mi SSW 11.5 mph - N/A   Clear
1:53 AM 28.9 °F 20.4 °F 19.9 °F 69% 29.71 in 10.0 mi West 9.2 mph - N/A   Clear
2:53 AM 21.9 °F 9.8 °F 16.0 °F 78% 29.72 in 10.0 mi NW 12.7 mph - N/A   Clear
3:53 AM 21.0 °F 11.4 °F 16.0 °F 81% 29.71 in 10.0 mi WNW 8.1 mph - N/A   Clear
4:53 AM 19.9 °F 10.1 °F 16.0 °F 85% 29.73 in 10.0 mi NW 8.1 mph - N/A   Clear
5:53 AM 19.0 °F 7.5 °F 16.0 °F 88% 29.78 in 10.0 mi NW 10.4 mph - N/A   Clear
6:53 AM 19.9 °F 7.9 °F 17.1 °F 89% 29.76 in 10.0 mi NNW 11.5 mph - N/A   Clear
7:53 AM 23.0 °F 11.1 °F 19.0 °F 85% 29.75 in 10.0 mi NNW 12.7 mph - N/A   Clear
8:53 AM 28.9 °F 17.3 °F 23.0 °F 78% 29.73 in 10.0 mi North 16.1 mph - N/A   Clear
9:48 AM 30.2 °F 19.3 °F 23.0 °F 75% 29.65 in 10.0 mi NNE 15.0 mph - N/A   Mostly Cloudy
9:53 AM 30.0 °F 18.3 °F 21.9 °F 72% 29.72 in 10.0 mi NNE 17.3 mph 23.0 mph N/A   Mostly Cloudy
10:12 AM 28.4 °F 17.0 °F 21.2 °F 74% 29.65 in 10.0 mi NNE 15.0 mph - N/A   Overcast
10:53 AM 30.0 °F 18.7 °F 23.0 °F 75% 29.70 in 10.0 mi North 16.1 mph - N/A   Overcast
11:43 AM 30.2 °F 19.3 °F 24.8 °F 80% 29.61 in 10.0 mi North 15.0 mph - N/A   Overcast
11:53 AM 30.9 °F 20.7 °F 24.1 °F 76% 29.66 in 10.0 mi NNE 13.8 mph - N/A   Overcast
12:25 PM 33.8 °F 24.3 °F 24.8 °F 70% 29.57 in 10.0 mi North 13.8 mph - N/A   Overcast
12:53 PM 34.0 °F 24.6 °F 24.1 °F 67% 29.60 in 10.0 mi North 13.8 mph - N/A   Mostly Cloudy
1:03 PM 33.8 °F 24.8 °F 24.8 °F 70% 29.54 in 10.0 mi NNE 12.7 mph - N/A   Scattered Clouds
1:21 PM 35.6 °F 28.6 °F 24.8 °F 65% 29.54 in 10.0 mi North 9.2 mph - N/A   Mostly Cloudy
1:38 PM 37.4 °F 29.3 °F 24.8 °F 60% 29.54 in 10.0 mi North 12.7 mph - N/A   Scattered Clouds
1:53 PM 37.0 °F 28.9 °F 24.1 °F 59% 29.58 in 10.0 mi North 12.7 mph 18.4 mph N/A   Partly Cloudy
2:53 PM 35.1 °F 24.5 °F 23.0 °F 61% 29.59 in 10.0 mi NNW 18.4 mph - N/A   Clear
3:53 PM 32.0 °F 20.8 °F 24.1 °F 73% 29.63 in 10.0 mi NW 17.3 mph - N/A   Mostly Cloudy
4:27 PM 30.2 °F 18.9 °F 23.0 °F 75% 29.54 in 10.0 mi NNW 16.1 mph - N/A   Mostly Cloudy
4:53 PM 30.0 °F 17.2 °F 24.1 °F 79% 29.62 in 10.0 mi North 20.7 mph - N/A   Overcast
5:18 PM 28.4 °F 14.4 °F 24.8 °F 86% 29.52 in 10.0 mi North 23.0 mph - N/A   Overcast
5:53 PM 27.0 °F 13.9 °F 23.0 °F 85% 29.65 in 10.0 mi North 18.4 mph - N/A   Overcast
6:53 PM 25.0 °F 10.9 °F 21.9 °F 88% 29.64 in 10.0 mi North 19.6 mph - N/A   Overcast
7:53 PM 25.0 °F 10.9 °F 21.0 °F 85% 29.62 in 8.0 mi North 19.6 mph 25.3 mph 0.00 in   Overcast
8:53 PM 24.1 °F 8.7 °F 19.9 °F 84% 29.58 in 10.0 mi North 23.0 mph - 0.00 in   Overcast
9:53 PM 24.1 °F 9.0 °F 19.0 °F 81% 29.57 in 10.0 mi North 21.9 mph - N/A   Overcast
10:31 PM 24.8 °F 10.3 °F 19.4 °F 80% 29.49 in 10.0 mi NNW 20.7 mph - N/A   Overcast
10:53 PM 24.1 °F 9.4 °F 19.0 °F 81% 29.57 in 10.0 mi NNW 20.7 mph - N/A   Overcast
11:53 PM 24.1 °F 8.7 °F 19.0 °F 81% 29.55 in 10.0 mi NNW 23.0 mph 32.2 mph N/A   Overcast